CW4352 Weather Reports


Display with metric or nautical units.
time (UTC)temp
F
wind
direction
speed
MPH
gust
MPH
rain 1hr
in
rain 24hr
in
rain mn
in
humidity
%
barometer
mb
20260509074704 69 355 0.0 2.0 0.00 0.00 0.00 57 1012.1
20260509073704 68 355 1.0 2.0 0.00 0.00 0.00 58 1012.1
20260509071704 66 355 0.0 2.0 0.00 0.00 0.00 63 1012.2
20260509070204 65 355 0.0 3.0 0.00 0.00 0.00 65 1012.2
20260509064204 63 355 1.0 2.0 0.00 0.00 0.00 66 1012.2
20260509061204 60 355 0.0 3.0 0.00 0.00 0.00 72 1012.2
20260509053704 56 355 2.0 3.0 0.00 0.00 0.00 77 1012.1
20260509053204 56 355 1.0 6.0 0.00 0.00 0.00 77 1012.1
20260509050704 55 355 1.0 5.0 0.00 0.00 0.00 78 1011.7
20260509050203 54 355 2.0 5.0 0.00 0.00 0.00 79 1011.7
20260509044204 53 355 0.0 2.0 0.00 0.00 0.00 81 1011.6
20260509043704 53 355 0.0 2.0 0.00 0.00 0.00 80 1011.6
20260509043204 53 355 1.0 5.0 0.00 0.00 0.00 80 1011.6
20260509040204 54 355 2.0 5.0 0.00 0.00 0.00 79 1011.6
20260509034704 54 355 1.0 3.0 0.00 0.00 0.00 78 1011.6
20260509034204 54 355 1.0 3.0 0.00 0.00 0.00 78 1011.6
20260509031204 54 355 2.0 3.0 0.00 0.00 0.00 78 1011.4
20260509030704 54 355 1.0 6.0 0.00 0.00 0.00 79 1011.4
20260509030204 54 0 3.0 8.0 0.00 0.00 0.00 80 1011.4
20260509023704 53 32 2.0 5.0 0.00 0.00 0.00 82 1011.5
20260509023204 53 32 2.0 5.0 0.00 0.00 0.00 82 1011.5
20260509021204 54 32 1.0 3.0 0.00 0.00 0.00 82 1011.5
20260509020704 54 32 2.0 3.0 0.00 0.00 0.00 82 1011.5
20260509020204 54 32 1.0 3.0 0.00 0.00 0.00 82 1011.5
20260509014704 54 32 2.0 3.0 0.00 0.00 0.00 82 1011.5
20260509013704 54 32 2.0 3.0 0.00 0.00 0.00 83 1011.5
20260509013203 54 32 2.0 6.0 0.00 0.00 0.00 83 1011.5
20260509011204 53 38 1.0 3.0 0.00 0.00 0.00 84 1011.5
20260509010205 54 38 1.0 7.0 0.00 0.00 0.00 83 1011.5
20260509004203 54 38 1.0 3.0 0.00 0.00 0.00 84 1011.5
20260509003203 54 38 2.0 3.0 0.00 0.00 0.00 84 1011.5
20260509001704 55 38 1.0 3.0 0.00 0.00 0.00 84 1011.2
20260509001203 55 38 1.0 5.0 0.00 0.00 0.00 84 1011.2
20260509000703 55 38 2.0 3.0 0.00 0.00 0.00 84 1011.2
20260509000204 55 38 2.0 3.0 0.00 0.00 0.00 84 1011.2
20260508234204 55 38 1.0 3.0 0.00 0.00 0.00 84 1011.1
20260508231203 55 38 1.0 3.0 0.00 0.00 0.00 85 1011.1
20260508224204 55 38 1.0 3.0 0.00 0.00 0.00 84 1011.2
20260508223204 55 38 1.0 3.0 0.00 0.00 0.00 84 1011.1
20260508220705 55 38 2.0 5.0 0.00 0.00 0.00 84 1011.1
20260508214704 56 40 0.0 1.0 0.00 0.00 0.00 82 1011.0
20260508213704 56 40 0.0 0.0 0.00 0.00 0.00 82 1011.0
20260508213204 57 40 0.0 3.0 0.00 0.00 0.00 82 1011.0
20260508211704 56 40 0.0 2.0 0.00 0.00 0.00 82 1011.0
20260508211204 56 40 1.0 3.0 0.00 0.00 0.00 82 1011.0
20260508210204 56 40 0.0 2.0 0.00 0.00 0.00 81 1011.0
20260508204704 56 40 0.0 0.0 0.00 0.00 0.00 80 1011.0
20260508204204 57 40 0.0 1.0 0.00 0.00 0.00 80 1011.0
20260508200704 58 40 0.0 1.0 0.00 0.00 0.00 76 1010.4
20260508194704 58 40 0.0 0.0 0.00 0.00 0.00 75 1010.4
20260508193704 58 40 0.0 0.0 0.00 0.00 0.00 74 1010.4
20260508193204 59 40 0.0 0.0 0.00 0.00 0.00 74 1010.4
20260508191704 60 40 0.0 1.0 0.00 0.00 0.00 71 1010.4
20260508190704 61 40 0.0 0.0 0.00 0.00 0.00 69 1009.8
20260508190204 62 40 0.0 0.0 0.00 0.00 0.00 68 1009.8
20260508184704 64 40 0.0 0.0 0.00 0.00 0.00 62 1009.8
20260508181704 66 40 0.0 0.0 0.00 0.00 0.00 55 1009.4
20260508181204 67 40 0.0 0.0 0.00 0.00 0.00 54 1009.4
20260508180704 67 40 0.0 0.0 0.00 0.00 0.00 54 1009.4
20260508174203 68 40 1.0 2.0 0.00 0.00 0.00 51 1009.4
20260508173704 69 40 0.0 3.0 0.00 0.00 0.00 51 1009.0
20260508173204 69 40 0.0 2.0 0.00 0.00 0.00 51 1009.0
20260508171204 69 40 1.0 3.0 0.00 0.00 0.00 49 1009.0
20260508170704 70 40 1.0 3.0 0.00 0.00 0.00 49 1009.0
20260508164204 70 40 1.0 3.0 0.00 0.00 0.00 51 1009.0
20260508163704 70 40 0.0 3.0 0.00 0.00 0.00 49 1009.0
20260508154704 71 40 1.0 3.0 0.00 0.00 0.00 57 1009.0
20260508153704 70 40 0.0 3.0 0.00 0.00 0.00 54 1009.0
20260508153204 70 41 2.0 5.0 0.00 0.00 0.00 55 1009.0
20260508151704 70 45 0.0 3.0 0.00 0.00 0.00 57 1009.5
20260508150704 71 45 2.0 3.0 0.00 0.00 0.00 56 1009.5
20260508150204 71 45 2.0 5.0 0.00 0.00 0.00 57 1009.5
20260508143204 70 35 1.0 3.0 0.00 0.00 0.00 59 1009.5
20260508141704 69 34 1.0 3.0 0.00 0.00 0.00 60 1009.4
20260508141204 70 36 1.0 3.0 0.00 0.00 0.00 58 1009.5
20260508140204 70 40 0.0 3.0 0.00 0.00 0.00 62 1009.5
20260508134704 70 40 1.0 3.0 0.00 0.00 0.00 59 1009.5
20260508133704 70 40 2.0 3.0 0.00 0.00 0.00 60 1009.8
20260508131704 69 37 0.0 2.0 0.00 0.00 0.00 64 1009.8
20260508130204 69 39 2.0 6.0 0.00 0.00 0.00 63 1009.8
20260508124704 69 44 1.0 3.0 0.00 0.00 0.00 64 1009.8
20260508124204 69 44 2.0 7.0 0.00 0.00 0.00 63 1010.0
20260508121704 69 41 1.0 3.0 0.00 0.00 0.00 62 1010.0
20260508120204 69 41 1.0 5.0 0.00 0.00 0.00 60 1010.0
20260508114704 69 40 2.0 3.0 0.00 0.00 0.00 63 1010.0
20260508113704 68 40 1.0 3.0 0.00 0.00 0.00 64 1010.0
20260508113205 68 40 1.0 5.0 0.00 0.00 0.00 64 1010.0
20260508110704 68 39 2.0 6.0 0.00 0.00 0.00 63 1010.1
20260508103203 68 42 1.0 5.0 0.00 0.00 0.00 67 1010.5
20260508100704 67 46 2.0 6.0 0.00 0.00 0.00 69 1010.5
20260508094204 65 46 1.0 3.0 0.00 0.00 0.00 74 1010.6
20260508093704 65 46 1.0 6.0 0.00 0.00 0.00 73 1010.6
20260508093204 65 32 1.0 5.0 0.00 0.00 0.00 75 1010.6
20260508091204 65 32 2.0 3.0 0.00 0.00 0.00 75 1010.5
20260508081703 64 36 2.0 6.0 0.00 0.00 0.00 77 1010.2